Regional Weather Roundup
Issued by NWS

Home | Current Version | Previous Version | Text Only | Print | Product List | Glossary Off
Versions: 1 2 3 4 5 6 7 8 9 10 11 12 13 14 15 16 17 18 19 20 21 22 23 24 25 26 27

000
ASUS45 KSLC 011410
RWRUT

UTAH REGIONAL WEATHER ROUNDUP
NATIONAL WEATHER SERVICE SALT LAKE CITY UT
800 AM MDT SUN MAY 01 2016

UTZ001>011-023>025-011500-

NORTHERN UTAH

CITY           SKY/WX    TMP DP  RH WIND       PRES   REMARKS
BRIGHAM CITY   CLOUDY    48  22  36 E25G48    30.11R
HILL AFB       PTSUNNY   45  25  45 E33G49    30.04R
LOGAN          CLOUDY    48  24  39 E36G46    30.16R
OGDEN          CLOUDY    47  24  40 MISG      30.07R
PROVO AIRPORT  PTSUNNY   48  21  34 VRB6      30.05R
SALT LAKE CITY PTSUNNY   49  23  36 E16G25    30.06R
VERNAL         CLOUDY    42  21  43 NE15G33   30.14R
WENDOVER       MOSUNNY   46  30  53 N21       30.09R
HEBER CITY     CLOUDY    37  27  65 CALM      30.09R

$$

UTZ012>022-026-027-011500-

SOUTHERN/CENTRAL UTAH

CITY           SKY/WX    TMP DP  RH WIND       PRES   REMARKS
BLANDING       CLOUDY    35  34  96 E9        30.06R WCI  28
BRYCE CANYON   SUNNY     36  27  69 N13       29.98R WCI  27
CEDAR CITY     SUNNY     36  35  96 CALM      29.96R
DELTA          SUNNY     45  27  49 NE14G20   30.00R
HANKSVILLE     CLOUDY    46  32  57 N5        30.04R
MILFORD        SUNNY     43  37  79 NE8       29.98R
MOAB/CYNLANDS  SUNNY     42  32  67 CALM      29.99R
PRICE          MOSUNNY   41  22  46 NE21G26   30.06R
ST GEORGE      CLOUDY    50  41  71 CALM      29.92S
KANAB          SUNNY     46  34  61 N6        29.97R

$$

REGIONAL REPORTS     COLORADO/ARIZONA

CITY           SKY/WX    TMP DP  RH WIND       PRES   REMARKS
CRAIG, CO      SUNNY     38  22  52 E17       30.15R WCI  28
GRAND JUNCTION SUNNY     43  28  55 CALM      30.02R
RIFLE          CLOUDY    40  28  62 NW3       30.07R
MONTROSE       SUNNY     40  30  67 CALM      30.05R
CORTEZ         MIX PCPN  37  35  92 SW6       30.00R WCI  32
PAGE, AZ       CLOUDY    49  36  61 CALM      29.91R
GRAND CANYON   CLOUDY    41  34  76 NE8       29.92R
KINGMAN        PTSUNNY   46  42  86 E5        29.88R
FLAGSTAFF      LGT SNOW  32  32 100 CALM      29.92R VSB 3/4

$$

REGIONAL REPORTS    NEVADA/IDAHO/WYOMING

CITY           SKY/WX    TMP DP  RH WIND       PRES   REMARKS
LAS VEGAS, NV  MOSUNNY   56  47  71 S3        29.85R
ELY            CLOUDY    38  31  76 N10       30.04R WCI  31
ELKO           PTSUNNY   45  36  70 NE10      30.06R
POCATELLO, ID  CLOUDY    44  32  62 E5        30.20R
BURLEY         PTSUNNY   44  37  76 E8        30.15R
EVANSTON, WY   CLOUDY    32  23  69 E29G38    30.17R WCI  18
ROCK SPRINGS   CLOUDY    33  23  66 E30G37    30.24R WCI  19

$$




USA.gov is the U.S. government's official web portal to all federal, state and local government web resources and services.